{"data":{"norad_id":66634,"epoch":"2026-05-25T00:01:09.012864Z","epoch_age_seconds":81784,"freshness":"FRESH","line1":"1 66634U 25271T   26145.00079876  .00030728  00000+0  91683-3 0  9996","line2":"2 66634  53.1593 143.8251 0001281  61.2950 298.8181 15.34401265 29225","mean_motion":15.34401265,"eccentricity":0.0001281,"inclination_deg":53.1593,"raan_deg":143.8251,"arg_perigee_deg":61.295,"mean_anomaly_deg":298.8181,"bstar":0.00091683,"rev_number":2922,"period_min":93.847680710821,"perigee_km":461.82316920997,"apogee_km":463.57579151624,"semimajor_km":6840.8364803631,"source":"CELESTRAK","updated_at":"2026-05-25T13:38:21.297666Z"}}